Year,Month,Day,Hour,Minute,Value (Times are PST for temperature in C)
2012,10,25,00,00,3.10
2012,10,25,00,01,3.10
2012,10,25,00,02,3.10
2012,10,25,00,03,3.10
2012,10,25,00,04,3.10
2012,10,25,00,05,3.10
2012,10,25,00,06,3.10
2012,10,25,00,07,3.10
2012,10,25,00,08,3.10
2012,10,25,00,09,3.10
2012,10,25,00,10,3.10
2012,10,25,00,11,3.10
2012,10,25,00,12,3.10
2012,10,25,00,13,3.10
2012,10,25,00,14,3.10
2012,10,25,00,15,3.00
2012,10,25,00,16,3.00
2012,10,25,00,17,3.00
2012,10,25,00,18,3.00
2012,10,25,00,19,3.00
2012,10,25,00,20,3.00
2012,10,25,00,21,3.00
2012,10,25,00,22,3.00
2012,10,25,00,23,3.00
2012,10,25,00,24,3.00
2012,10,25,00,25,3.00
2012,10,25,00,26,3.00
2012,10,25,00,27,3.00
2012,10,25,00,28,3.00
2012,10,25,00,29,3.00
2012,10,25,00,30,3.00
2012,10,25,00,31,3.00
2012,10,25,00,32,3.00
2012,10,25,00,33,3.00
2012,10,25,00,34,3.00
2012,10,25,00,35,3.00
2012,10,25,00,36,3.00
2012,10,25,00,37,3.00
2012,10,25,00,38,3.00
2012,10,25,00,39,3.00
2012,10,25,00,40,3.00
2012,10,25,00,41,3.00
2012,10,25,00,42,3.10
2012,10,25,00,43,3.10
2012,10,25,00,44,3.10
2012,10,25,00,45,3.10
2012,10,25,00,46,3.10
2012,10,25,00,47,3.10
2012,10,25,00,48,3.10
2012,10,25,00,49,3.10
2012,10,25,00,50,3.10
2012,10,25,00,51,3.10
2012,10,25,00,52,3.10
2012,10,25,00,53,3.10
2012,10,25,00,54,3.10
2012,10,25,00,55,3.10
2012,10,25,00,56,3.10
2012,10,25,00,57,3.10
2012,10,25,00,58,3.10
2012,10,25,00,59,3.10
2012,10,25,01,00,3.10
2012,10,25,01,01,3.10
2012,10,25,01,02,3.10
2012,10,25,01,03,3.10
2012,10,25,01,04,3.10
2012,10,25,01,05,3.10
2012,10,25,01,06,3.10
2012,10,25,01,07,3.00
2012,10,25,01,08,3.00
2012,10,25,01,09,3.00
2012,10,25,01,10,3.00
2012,10,25,01,11,3.00
2012,10,25,01,12,3.00
2012,10,25,01,13,3.00
2012,10,25,01,14,2.90
2012,10,25,01,15,2.90
2012,10,25,01,16,2.90
2012,10,25,01,17,2.90
2012,10,25,01,18,2.90
2012,10,25,01,19,2.90
2012,10,25,01,20,2.90
2012,10,25,01,21,2.90
2012,10,25,01,22,2.80
2012,10,25,01,23,2.80
2012,10,25,01,24,2.80
2012,10,25,01,25,2.80
2012,10,25,01,26,2.80
2012,10,25,01,27,2.80
2012,10,25,01,28,2.80
2012,10,25,01,29,2.80
2012,10,25,01,30,2.80
2012,10,25,01,31,2.80
2012,10,25,01,32,2.80
2012,10,25,01,33,2.80
2012,10,25,01,34,2.80
2012,10,25,01,35,2.80
2012,10,25,01,36,2.70
2012,10,25,01,37,2.70
2012,10,25,01,38,2.70
2012,10,25,01,39,2.70
2012,10,25,01,40,2.70
2012,10,25,01,41,2.70
2012,10,25,01,42,2.70
2012,10,25,01,43,2.70
2012,10,25,01,44,2.70
2012,10,25,01,45,2.70
2012,10,25,01,46,2.70
2012,10,25,01,47,2.70
2012,10,25,01,48,2.70
2012,10,25,01,49,2.60
2012,10,25,01,50,2.60
2012,10,25,01,51,2.70
2012,10,25,01,52,2.70
2012,10,25,01,53,2.70
2012,10,25,01,54,2.60
2012,10,25,01,55,2.60
2012,10,25,01,56,2.60
2012,10,25,01,57,2.60
2012,10,25,01,58,2.60
2012,10,25,01,59,2.60
2012,10,25,02,00,2.60
2012,10,25,02,01,2.60
2012,10,25,02,02,2.60
2012,10,25,02,03,2.60
2012,10,25,02,04,2.60
2012,10,25,02,05,2.60
2012,10,25,02,06,2.60
2012,10,25,02,07,2.60
2012,10,25,02,08,2.60
2012,10,25,02,09,2.60
2012,10,25,02,10,2.60
2012,10,25,02,11,2.60
2012,10,25,02,12,2.60
2012,10,25,02,13,2.60
2012,10,25,02,14,2.60
2012,10,25,02,15,2.60
2012,10,25,02,16,2.60
2012,10,25,02,17,2.60
2012,10,25,02,18,2.60
2012,10,25,02,19,2.60
2012,10,25,02,20,2.60
2012,10,25,02,21,2.60
2012,10,25,02,22,2.60
2012,10,25,02,23,2.60
2012,10,25,02,24,2.60
2012,10,25,02,25,2.60
2012,10,25,02,26,2.50
2012,10,25,02,27,2.50
2012,10,25,02,28,2.50
2012,10,25,02,29,2.50
2012,10,25,02,30,2.50
2012,10,25,02,31,2.40
2012,10,25,02,32,2.40
2012,10,25,02,33,2.40
2012,10,25,02,34,2.40
2012,10,25,02,35,2.40
2012,10,25,02,36,2.40
2012,10,25,02,37,2.40
2012,10,25,02,38,2.40
2012,10,25,02,39,2.40
2012,10,25,02,40,2.40
2012,10,25,02,41,2.40
2012,10,25,02,42,2.40
2012,10,25,02,43,2.40
2012,10,25,02,44,2.40
2012,10,25,02,45,2.40
2012,10,25,02,46,2.40
2012,10,25,02,47,2.40
2012,10,25,02,48,2.40
2012,10,25,02,49,2.40
2012,10,25,02,50,2.40
2012,10,25,02,51,2.40
2012,10,25,02,52,2.40
2012,10,25,02,53,2.40
2012,10,25,02,54,2.30
2012,10,25,02,55,2.30
2012,10,25,02,56,2.30
2012,10,25,02,57,2.30
2012,10,25,02,58,2.30
2012,10,25,02,59,2.30
2012,10,25,03,00,2.30
2012,10,25,03,01,2.30
2012,10,25,03,02,2.30
2012,10,25,03,03,2.30
2012,10,25,03,04,2.30
2012,10,25,03,05,2.30
2012,10,25,03,06,2.30
2012,10,25,03,07,2.30
2012,10,25,03,08,2.30
2012,10,25,03,09,2.30
2012,10,25,03,10,2.30
2012,10,25,03,11,2.30
2012,10,25,03,12,2.30
2012,10,25,03,13,2.30
2012,10,25,03,14,2.30
2012,10,25,03,15,2.30
2012,10,25,03,16,2.30
2012,10,25,03,17,2.30
2012,10,25,03,18,2.30
2012,10,25,03,19,2.30
2012,10,25,03,20,2.30
2012,10,25,03,21,2.30
2012,10,25,03,22,2.30
2012,10,25,03,23,2.30
2012,10,25,03,24,2.30
2012,10,25,03,25,2.30
2012,10,25,03,26,2.30
2012,10,25,03,27,2.30
2012,10,25,03,28,2.30
2012,10,25,03,29,2.20
2012,10,25,03,30,2.20
2012,10,25,03,31,2.20
2012,10,25,03,32,2.20
2012,10,25,03,33,2.20
2012,10,25,03,34,2.20
2012,10,25,03,35,2.20
2012,10,25,03,36,2.10
2012,10,25,03,37,2.10
2012,10,25,03,38,2.10
2012,10,25,03,39,2.10
2012,10,25,03,40,2.10
2012,10,25,03,41,2.10
2012,10,25,03,42,2.10
2012,10,25,03,43,2.10
2012,10,25,03,44,2.10
2012,10,25,03,45,2.10
2012,10,25,03,46,2.00
2012,10,25,03,47,2.00
2012,10,25,03,48,2.00
2012,10,25,03,49,1.90
2012,10,25,03,50,1.90
2012,10,25,03,51,1.90
2012,10,25,03,52,1.90
2012,10,25,03,53,1.90
2012,10,25,03,54,1.80
2012,10,25,03,55,1.80
2012,10,25,03,56,1.80
2012,10,25,03,57,1.80
2012,10,25,03,58,1.80
2012,10,25,03,59,1.70
2012,10,25,04,00,1.70
2012,10,25,04,01,1.70
2012,10,25,04,02,1.70
2012,10,25,04,03,1.70
2012,10,25,04,04,1.70
2012,10,25,04,05,1.60
2012,10,25,04,06,1.60
2012,10,25,04,07,1.60
2012,10,25,04,08,1.60
2012,10,25,04,09,1.60
2012,10,25,04,10,1.60
2012,10,25,04,11,1.60
2012,10,25,04,12,1.50
2012,10,25,04,13,1.50
2012,10,25,04,14,1.50
2012,10,25,04,15,1.50
2012,10,25,04,16,1.50
2012,10,25,04,17,1.40
2012,10,25,04,18,1.40
2012,10,25,04,19,1.40
2012,10,25,04,20,1.40
2012,10,25,04,21,1.40
2012,10,25,04,22,1.40
2012,10,25,04,23,1.40
2012,10,25,04,24,1.40
2012,10,25,04,25,1.30
2012,10,25,04,26,1.30
2012,10,25,04,27,1.30
2012,10,25,04,28,1.30
2012,10,25,04,29,1.30
2012,10,25,04,30,1.30
2012,10,25,04,31,1.30
2012,10,25,04,32,1.30
2012,10,25,04,33,1.20
2012,10,25,04,34,1.20
2012,10,25,04,35,1.20
2012,10,25,04,36,1.20
2012,10,25,04,37,1.20
2012,10,25,04,38,1.20
2012,10,25,04,39,1.20
2012,10,25,04,40,1.20
2012,10,25,04,41,1.20
2012,10,25,04,42,1.20
2012,10,25,04,43,1.10
2012,10,25,04,44,1.10
2012,10,25,04,45,1.10
2012,10,25,04,46,1.10
2012,10,25,04,47,1.10
2012,10,25,04,48,1.00
2012,10,25,04,49,1.00
2012,10,25,04,50,1.00
2012,10,25,04,51,0.90
2012,10,25,04,52,0.90
2012,10,25,04,53,0.90
2012,10,25,04,54,0.90
2012,10,25,04,55,0.90
2012,10,25,04,56,0.80
2012,10,25,04,57,0.80
2012,10,25,04,58,0.80
2012,10,25,04,59,0.80
2012,10,25,05,00,0.80
2012,10,25,05,01,0.80
2012,10,25,05,02,0.70
2012,10,25,05,03,0.70
2012,10,25,05,04,0.70
2012,10,25,05,05,0.70
2012,10,25,05,06,0.70
2012,10,25,05,07,0.70
2012,10,25,05,08,0.60
2012,10,25,05,09,0.60
2012,10,25,05,10,0.60
2012,10,25,05,11,0.60
2012,10,25,05,12,0.60
2012,10,25,05,13,0.60
2012,10,25,05,14,0.50
2012,10,25,05,15,0.50
2012,10,25,05,16,0.40
2012,10,25,05,17,0.40
2012,10,25,05,18,0.40
2012,10,25,05,19,0.40
2012,10,25,05,20,0.40
2012,10,25,05,21,0.40
2012,10,25,05,22,0.40
2012,10,25,05,23,0.40
2012,10,25,05,24,0.40
2012,10,25,05,25,0.40
2012,10,25,05,26,0.40
2012,10,25,05,27,0.50
2012,10,25,05,28,0.50
2012,10,25,05,29,0.50
2012,10,25,05,30,0.50
2012,10,25,05,31,0.50
2012,10,25,05,32,0.50
2012,10,25,05,33,0.50
2012,10,25,05,34,0.60
2012,10,25,05,35,0.60
2012,10,25,05,36,0.60
2012,10,25,05,37,0.60
2012,10,25,05,38,0.60
2012,10,25,05,39,0.60
2012,10,25,05,40,0.60
2012,10,25,05,41,0.60
2012,10,25,05,42,0.60
2012,10,25,05,43,0.60
2012,10,25,05,44,0.60
2012,10,25,05,45,0.60
2012,10,25,05,46,0.60
2012,10,25,05,47,0.60
2012,10,25,05,48,0.60
2012,10,25,05,49,0.60
2012,10,25,05,50,0.50
2012,10,25,05,51,0.50
2012,10,25,05,52,0.50
2012,10,25,05,53,0.50
2012,10,25,05,54,0.40
2012,10,25,05,55,0.40
2012,10,25,05,56,0.40
2012,10,25,05,57,0.40
2012,10,25,05,58,0.40
2012,10,25,05,59,0.40
2012,10,25,06,00,0.30
2012,10,25,06,01,0.30
2012,10,25,06,02,0.30
2012,10,25,06,03,0.30
2012,10,25,06,04,0.30
2012,10,25,06,05,0.30
2012,10,25,06,06,0.30
2012,10,25,06,07,0.30
2012,10,25,06,08,0.30
2012,10,25,06,09,0.30
2012,10,25,06,10,0.20
2012,10,25,06,11,0.20
2012,10,25,06,12,0.20
2012,10,25,06,13,0.20
2012,10,25,06,14,0.30
2012,10,25,06,15,0.30
2012,10,25,06,16,0.30
2012,10,25,06,17,0.30
2012,10,25,06,18,0.30
2012,10,25,06,19,0.30
2012,10,25,06,20,0.40
2012,10,25,06,21,0.40
2012,10,25,06,22,0.40
2012,10,25,06,23,0.40
2012,10,25,06,24,0.40
2012,10,25,06,25,0.50
2012,10,25,06,26,0.50
2012,10,25,06,27,0.60
2012,10,25,06,28,0.60
2012,10,25,06,29,0.60
2012,10,25,06,30,0.60
2012,10,25,06,31,0.60
2012,10,25,06,32,0.60
2012,10,25,06,33,0.60
2012,10,25,06,34,0.60
2012,10,25,06,35,0.60
2012,10,25,06,36,0.60
2012,10,25,06,37,0.60
2012,10,25,06,38,0.60
2012,10,25,06,39,0.60
2012,10,25,06,40,0.60
2012,10,25,06,41,0.60
2012,10,25,06,42,0.50
2012,10,25,06,43,0.50
2012,10,25,06,44,0.50
2012,10,25,06,45,0.50
2012,10,25,06,46,0.50
2012,10,25,06,47,0.50
2012,10,25,06,48,0.50
2012,10,25,06,49,0.50
2012,10,25,06,50,0.50
2012,10,25,06,51,0.50
2012,10,25,06,52,0.50
2012,10,25,06,53,0.50
2012,10,25,06,54,0.40
2012,10,25,06,55,0.40
2012,10,25,06,56,0.40
2012,10,25,06,57,0.40
2012,10,25,06,58,0.40
2012,10,25,06,59,0.40
2012,10,25,07,00,0.40
2012,10,25,07,01,0.40
2012,10,25,07,02,0.40
2012,10,25,07,03,0.40
2012,10,25,07,04,0.40
2012,10,25,07,05,0.30
2012,10,25,07,06,0.30
2012,10,25,07,07,0.30
2012,10,25,07,08,0.30
2012,10,25,07,09,0.30
2012,10,25,07,10,0.30
2012,10,25,07,11,0.30
2012,10,25,07,12,0.30
2012,10,25,07,13,0.30
2012,10,25,07,14,0.30
2012,10,25,07,15,0.30
2012,10,25,07,16,0.30
2012,10,25,07,17,0.30
2012,10,25,07,18,0.30
2012,10,25,07,19,0.30
2012,10,25,07,20,0.30
2012,10,25,07,21,0.30
2012,10,25,07,22,0.30
2012,10,25,07,23,0.30
2012,10,25,07,24,0.30
2012,10,25,07,25,0.30
2012,10,25,07,26,0.30
2012,10,25,07,27,0.30
2012,10,25,07,28,0.30
2012,10,25,07,29,0.30
2012,10,25,07,30,0.30
2012,10,25,07,31,0.30
2012,10,25,07,32,0.30
2012,10,25,07,33,0.20
2012,10,25,07,34,0.20
2012,10,25,07,35,0.20
2012,10,25,07,36,0.20
2012,10,25,07,37,0.20
2012,10,25,07,38,0.20
2012,10,25,07,39,0.20
2012,10,25,07,40,0.20
2012,10,25,07,41,0.20
2012,10,25,07,42,0.20
2012,10,25,07,43,0.20
2012,10,25,07,44,0.20
2012,10,25,07,45,0.20
2012,10,25,07,46,0.20
2012,10,25,07,47,0.20
2012,10,25,07,48,0.20
2012,10,25,07,49,0.20
2012,10,25,07,50,0.20
2012,10,25,07,51,0.30
2012,10,25,07,52,0.30
2012,10,25,07,53,0.30
2012,10,25,07,54,0.30
2012,10,25,07,55,0.30
2012,10,25,07,56,0.30
2012,10,25,07,57,0.30
2012,10,25,07,58,0.30
2012,10,25,07,59,0.30
2012,10,25,08,00,0.30
2012,10,25,08,01,0.30
2012,10,25,08,02,0.30
2012,10,25,08,03,0.30
2012,10,25,08,04,0.30
2012,10,25,08,05,0.30
2012,10,25,08,06,0.30
2012,10,25,08,07,0.30
2012,10,25,08,08,0.30
2012,10,25,08,09,0.30
2012,10,25,08,10,0.30
2012,10,25,08,11,0.30
2012,10,25,08,12,0.30
2012,10,25,08,13,0.30
2012,10,25,08,14,0.30
2012,10,25,08,15,0.30
2012,10,25,08,16,0.30
2012,10,25,08,17,0.30
2012,10,25,08,18,0.20
2012,10,25,08,19,0.20
2012,10,25,08,20,0.20
2012,10,25,08,21,0.20
2012,10,25,08,22,0.20
2012,10,25,08,23,0.20
2012,10,25,08,24,0.20
2012,10,25,08,25,0.20
2012,10,25,08,26,0.20
2012,10,25,08,27,0.20
2012,10,25,08,28,0.20
2012,10,25,08,29,0.20
2012,10,25,08,30,0.20
2012,10,25,08,31,0.20
2012,10,25,08,32,0.20
2012,10,25,08,33,0.20
2012,10,25,08,34,0.20
2012,10,25,08,35,0.20
2012,10,25,08,36,0.20
2012,10,25,08,37,0.20
2012,10,25,08,38,0.30
2012,10,25,08,39,0.30
2012,10,25,08,40,0.30
2012,10,25,08,41,0.30
2012,10,25,08,42,0.30
2012,10,25,08,43,0.30
2012,10,25,08,44,0.30
2012,10,25,08,45,0.30
2012,10,25,08,46,0.30
2012,10,25,08,47,0.30
2012,10,25,08,48,0.30
2012,10,25,08,49,0.30
2012,10,25,08,50,0.30
2012,10,25,08,51,0.30
2012,10,25,08,52,0.30
2012,10,25,08,53,0.30
2012,10,25,08,54,0.30
2012,10,25,08,55,0.30
2012,10,25,08,56,0.30
2012,10,25,08,57,0.30
2012,10,25,08,58,0.30
2012,10,25,08,59,0.30
2012,10,25,09,00,0.30
2012,10,25,09,01,0.30
2012,10,25,09,02,0.30
2012,10,25,09,03,0.30
2012,10,25,09,04,0.30
2012,10,25,09,05,0.30
2012,10,25,09,06,0.30
2012,10,25,09,07,0.30
2012,10,25,09,08,0.30
2012,10,25,09,09,0.30
2012,10,25,09,10,0.30
2012,10,25,09,11,0.30
2012,10,25,09,12,0.30
2012,10,25,09,13,0.30
2012,10,25,09,14,0.30
2012,10,25,09,15,0.30
2012,10,25,09,16,0.30
2012,10,25,09,17,0.30
2012,10,25,09,18,0.30
2012,10,25,09,19,0.30
2012,10,25,09,20,0.40
2012,10,25,09,21,0.40
2012,10,25,09,22,0.40
2012,10,25,09,23,0.40
2012,10,25,09,24,0.40
2012,10,25,09,25,0.40
2012,10,25,09,26,0.40
2012,10,25,09,27,0.50
2012,10,25,09,28,0.50
2012,10,25,09,29,0.50
2012,10,25,09,30,0.60
2012,10,25,09,31,0.60
2012,10,25,09,32,0.60
2012,10,25,09,33,0.60
2012,10,25,09,34,0.70
2012,10,25,09,35,0.70
2012,10,25,09,36,0.70
2012,10,25,09,37,0.70
2012,10,25,09,38,0.70
2012,10,25,09,39,0.70
2012,10,25,09,40,0.80
2012,10,25,09,41,0.80
2012,10,25,09,42,0.80
2012,10,25,09,43,0.80
2012,10,25,09,44,0.80
2012,10,25,09,45,0.80
2012,10,25,09,46,0.80
2012,10,25,09,47,0.80
2012,10,25,09,48,0.70
2012,10,25,09,49,0.70
2012,10,25,09,50,0.70
2012,10,25,09,51,0.70
2012,10,25,09,52,0.70
2012,10,25,09,53,0.70
2012,10,25,09,54,0.70
2012,10,25,09,55,0.70
2012,10,25,09,56,0.70
2012,10,25,09,57,0.70
2012,10,25,09,58,0.70
2012,10,25,09,59,0.80
2012,10,25,10,00,0.80
2012,10,25,10,01,0.80
2012,10,25,10,02,0.80
2012,10,25,10,03,0.80
2012,10,25,10,04,0.80
2012,10,25,10,05,0.90
2012,10,25,10,06,0.90
2012,10,25,10,07,0.90
2012,10,25,10,08,1.00
2012,10,25,10,09,1.00
2012,10,25,10,10,1.00
2012,10,25,10,11,1.00
2012,10,25,10,12,1.00
2012,10,25,10,13,1.00
2012,10,25,10,14,1.00
2012,10,25,10,15,1.00
2012,10,25,10,16,1.10
2012,10,25,10,17,1.10
2012,10,25,10,18,1.20
2012,10,25,10,19,1.20
2012,10,25,10,20,1.20
2012,10,25,10,21,1.20
2012,10,25,10,22,1.20
2012,10,25,10,23,1.30
2012,10,25,10,24,1.30
2012,10,25,10,25,1.30
2012,10,25,10,26,1.40
2012,10,25,10,27,1.40
2012,10,25,10,28,1.50
2012,10,25,10,29,1.50
2012,10,25,10,30,1.50
2012,10,25,10,31,1.50
2012,10,25,10,32,1.50
2012,10,25,10,33,1.50
2012,10,25,10,34,1.50
2012,10,25,10,35,1.50
2012,10,25,10,36,1.60
2012,10,25,10,37,1.60
2012,10,25,10,38,1.50
2012,10,25,10,39,1.60
2012,10,25,10,40,1.60
2012,10,25,10,41,1.60
2012,10,25,10,42,1.60
2012,10,25,10,43,1.60
2012,10,25,10,44,1.60
2012,10,25,10,45,1.70
2012,10,25,10,46,1.70
2012,10,25,10,47,1.80
2012,10,25,10,48,1.80
2012,10,25,10,49,1.80
2012,10,25,10,50,1.80
2012,10,25,10,51,1.80
2012,10,25,10,52,1.80
2012,10,25,10,53,1.80
2012,10,25,10,54,1.90
2012,10,25,10,55,1.90
2012,10,25,10,56,1.90
2012,10,25,10,57,1.80
2012,10,25,10,58,1.80
2012,10,25,10,59,1.80
2012,10,25,11,00,1.80
2012,10,25,11,01,1.80
2012,10,25,11,02,1.80
2012,10,25,11,03,1.80
2012,10,25,11,04,1.80
2012,10,25,11,05,1.80
2012,10,25,11,06,1.80
2012,10,25,11,07,1.90
2012,10,25,11,08,1.90
2012,10,25,11,09,1.90
2012,10,25,11,10,2.00
2012,10,25,11,11,2.00
2012,10,25,11,12,2.10
2012,10,25,11,13,2.10
2012,10,25,11,14,2.10
2012,10,25,11,15,2.10
2012,10,25,11,16,2.10
2012,10,25,11,17,2.20
2012,10,25,11,18,2.20
2012,10,25,11,19,2.20
2012,10,25,11,20,2.20
2012,10,25,11,21,2.30
2012,10,25,11,22,2.30
2012,10,25,11,23,2.30
2012,10,25,11,24,2.30
2012,10,25,11,25,2.40
2012,10,25,11,26,2.40
2012,10,25,11,27,2.50
2012,10,25,11,28,2.50
2012,10,25,11,29,2.60
2012,10,25,11,30,2.60
2012,10,25,11,31,2.60
2012,10,25,11,32,2.70
2012,10,25,11,33,2.80
2012,10,25,11,34,2.90
2012,10,25,11,35,3.00
2012,10,25,11,36,3.10
2012,10,25,11,37,3.20
2012,10,25,11,38,3.30
2012,10,25,11,39,3.40
2012,10,25,11,40,3.50
2012,10,25,11,41,3.50
2012,10,25,11,42,3.60
2012,10,25,11,43,3.70
2012,10,25,11,44,3.80
2012,10,25,11,45,3.80
2012,10,25,11,46,3.90
2012,10,25,11,47,4.00
2012,10,25,11,48,4.00
2012,10,25,11,49,4.10
2012,10,25,11,50,4.10
2012,10,25,11,51,4.10
2012,10,25,11,52,4.10
2012,10,25,11,53,4.10
2012,10,25,11,54,4.20
2012,10,25,11,55,4.20
2012,10,25,11,56,4.20
2012,10,25,11,57,4.20
2012,10,25,11,58,4.20
2012,10,25,11,59,4.20
2012,10,25,12,00,4.20
2012,10,25,12,01,4.20
2012,10,25,12,02,4.30
2012,10,25,12,03,4.30
2012,10,25,12,04,4.30
2012,10,25,12,05,4.30
2012,10,25,12,06,4.40
2012,10,25,12,07,4.40
2012,10,25,12,08,4.50
2012,10,25,12,09,4.50
2012,10,25,12,10,4.60
2012,10,25,12,11,4.60
2012,10,25,12,12,4.70
2012,10,25,12,13,4.80
2012,10,25,12,14,4.80
2012,10,25,12,15,4.90
2012,10,25,12,16,5.00
2012,10,25,12,17,5.10
2012,10,25,12,18,5.20
2012,10,25,12,19,5.20
2012,10,25,12,20,5.30
2012,10,25,12,21,5.40
2012,10,25,12,22,5.40
2012,10,25,12,23,5.50
2012,10,25,12,24,5.50
2012,10,25,12,25,5.60
2012,10,25,12,26,5.60
2012,10,25,12,27,5.70
2012,10,25,12,28,5.70
2012,10,25,12,29,5.80
2012,10,25,12,30,5.80
2012,10,25,12,31,5.80
2012,10,25,12,32,5.90
2012,10,25,12,33,6.00
2012,10,25,12,34,6.10
2012,10,25,12,35,6.20
2012,10,25,12,36,6.20
2012,10,25,12,37,6.30
2012,10,25,12,38,6.40
2012,10,25,12,39,6.50
2012,10,25,12,40,6.60
2012,10,25,12,41,6.70
2012,10,25,12,42,6.80
2012,10,25,12,43,6.80
2012,10,25,12,44,6.90
2012,10,25,12,45,6.90
2012,10,25,12,46,7.00
2012,10,25,12,47,7.00
2012,10,25,12,48,7.10
2012,10,25,12,49,7.20
2012,10,25,12,50,7.20
2012,10,25,12,51,7.20
2012,10,25,12,52,7.30
2012,10,25,12,53,7.40
2012,10,25,12,54,7.40
2012,10,25,12,55,7.50
2012,10,25,12,56,7.60
2012,10,25,12,57,7.70
2012,10,25,12,58,7.70
2012,10,25,12,59,7.70
2012,10,25,13,00,7.80
2012,10,25,13,01,7.80
2012,10,25,13,02,7.80
2012,10,25,13,03,7.90
2012,10,25,13,04,7.90
2012,10,25,13,05,7.90
2012,10,25,13,06,7.80
2012,10,25,13,07,7.80
2012,10,25,13,08,7.80
2012,10,25,13,09,7.70
2012,10,25,13,10,7.70
2012,10,25,13,11,7.70
2012,10,25,13,12,7.70
2012,10,25,13,13,7.60
2012,10,25,13,14,7.70
2012,10,25,13,15,7.70
2012,10,25,13,16,7.70
2012,10,25,13,17,7.70
2012,10,25,13,18,7.70
2012,10,25,13,19,7.80
2012,10,25,13,20,7.80
2012,10,25,13,21,7.80
2012,10,25,13,22,7.80
2012,10,25,13,23,7.80
2012,10,25,13,24,7.80
2012,10,25,13,25,7.80
2012,10,25,13,26,7.80
2012,10,25,13,27,7.80
2012,10,25,13,28,7.80
2012,10,25,13,29,7.80
2012,10,25,13,30,7.80
2012,10,25,13,31,7.90
2012,10,25,13,32,7.90
2012,10,25,13,33,7.90
2012,10,25,13,34,7.90
2012,10,25,13,35,8.00
2012,10,25,13,36,8.00
2012,10,25,13,37,8.10
2012,10,25,13,38,8.10
2012,10,25,13,39,8.10
2012,10,25,13,40,8.10
2012,10,25,13,41,8.10
2012,10,25,13,42,8.20
2012,10,25,13,43,8.20
2012,10,25,13,44,8.30
2012,10,25,13,45,8.30
2012,10,25,13,46,8.30
2012,10,25,13,47,8.40
2012,10,25,13,48,8.40
2012,10,25,13,49,8.40
2012,10,25,13,50,8.50
2012,10,25,13,51,8.50
2012,10,25,13,52,8.60
2012,10,25,13,53,8.60
2012,10,25,13,54,8.60
2012,10,25,13,55,8.70
2012,10,25,13,56,8.70
2012,10,25,13,57,8.80
2012,10,25,13,58,8.80
2012,10,25,13,59,8.80
2012,10,25,14,00,8.90
2012,10,25,14,01,9.00
2012,10,25,14,02,9.00
2012,10,25,14,03,9.10
2012,10,25,14,04,9.10
2012,10,25,14,05,9.10
2012,10,25,14,06,9.10
2012,10,25,14,07,9.10
2012,10,25,14,08,9.10
2012,10,25,14,09,9.10
2012,10,25,14,10,9.00
2012,10,25,14,11,9.00
2012,10,25,14,12,9.00
2012,10,25,14,13,9.00
2012,10,25,14,14,9.00
2012,10,25,14,15,9.00
2012,10,25,14,16,9.00
2012,10,25,14,17,9.00
2012,10,25,14,18,9.00
2012,10,25,14,19,9.00
2012,10,25,14,20,9.00
2012,10,25,14,21,9.00
2012,10,25,14,22,9.00
2012,10,25,14,23,9.00
2012,10,25,14,24,9.10
2012,10,25,14,25,9.10
2012,10,25,14,26,9.10
2012,10,25,14,27,9.10
2012,10,25,14,28,9.20
2012,10,25,14,29,9.20
2012,10,25,14,30,9.20
2012,10,25,14,31,9.20
2012,10,25,14,32,9.10
2012,10,25,14,33,9.10
2012,10,25,14,34,9.10
2012,10,25,14,35,9.00
2012,10,25,14,36,9.00
2012,10,25,14,37,8.90
2012,10,25,14,38,8.90
2012,10,25,14,39,8.90
2012,10,25,14,40,8.90
2012,10,25,14,41,8.90
2012,10,25,14,42,8.90
2012,10,25,14,43,8.80
2012,10,25,14,44,8.80
2012,10,25,14,45,8.80
2012,10,25,14,46,8.80
2012,10,25,14,47,8.80
2012,10,25,14,48,8.80
2012,10,25,14,49,8.80
2012,10,25,14,50,8.80
2012,10,25,14,51,8.80
2012,10,25,14,52,8.80
2012,10,25,14,53,8.80
2012,10,25,14,54,8.90
2012,10,25,14,55,8.90
2012,10,25,14,56,8.90
2012,10,25,14,57,8.90
2012,10,25,14,58,9.00
2012,10,25,14,59,9.00
2012,10,25,15,00,9.00
2012,10,25,15,01,9.10
2012,10,25,15,02,9.10
2012,10,25,15,03,9.10
2012,10,25,15,04,9.10
2012,10,25,15,05,9.10
2012,10,25,15,06,9.20
2012,10,25,15,07,9.20
2012,10,25,15,08,9.20
2012,10,25,15,09,9.30
2012,10,25,15,10,9.30
2012,10,25,15,11,9.30
2012,10,25,15,12,9.40
2012,10,25,15,13,9.40
2012,10,25,15,14,9.40
2012,10,25,15,15,9.40
2012,10,25,15,16,9.40
2012,10,25,15,17,9.40
2012,10,25,15,18,9.40
2012,10,25,15,19,9.40
2012,10,25,15,20,9.40
2012,10,25,15,21,9.40
2012,10,25,15,22,9.40
2012,10,25,15,23,9.40
2012,10,25,15,24,9.40
2012,10,25,15,25,9.40
2012,10,25,15,26,9.40
2012,10,25,15,27,9.50
2012,10,25,15,28,9.50
2012,10,25,15,29,9.50
2012,10,25,15,30,9.50
2012,10,25,15,31,9.60
2012,10,25,15,32,9.60
2012,10,25,15,33,9.50
2012,10,25,15,34,9.60
2012,10,25,15,35,9.60
2012,10,25,15,36,9.50
2012,10,25,15,37,9.50
2012,10,25,15,38,9.50
2012,10,25,15,39,9.50
2012,10,25,15,40,9.50
2012,10,25,15,41,9.50
2012,10,25,15,42,9.50
2012,10,25,15,43,9.50
2012,10,25,15,44,9.50
2012,10,25,15,45,9.50
2012,10,25,15,46,9.50
2012,10,25,15,47,9.50
2012,10,25,15,48,9.50
2012,10,25,15,49,9.50
2012,10,25,15,50,9.50
2012,10,25,15,51,9.40
2012,10,25,15,52,9.40
2012,10,25,15,53,9.40
2012,10,25,15,54,9.40
2012,10,25,15,55,9.40
2012,10,25,15,56,9.40
2012,10,25,15,57,9.40
2012,10,25,15,58,9.40
2012,10,25,15,59,9.30
2012,10,25,16,00,9.30
2012,10,25,16,01,9.30
2012,10,25,16,02,9.30
2012,10,25,16,03,9.30
2012,10,25,16,04,9.30
2012,10,25,16,05,9.30
2012,10,25,16,06,9.30
2012,10,25,16,07,9.30
2012,10,25,16,08,9.30
2012,10,25,16,09,9.30
2012,10,25,16,10,9.20
2012,10,25,16,11,9.20
2012,10,25,16,12,9.20
2012,10,25,16,13,9.20
2012,10,25,16,14,9.20
2012,10,25,16,15,9.20
2012,10,25,16,16,9.20
2012,10,25,16,17,9.10
2012,10,25,16,18,9.10
2012,10,25,16,19,9.00
2012,10,25,16,20,9.00
2012,10,25,16,21,9.00
2012,10,25,16,22,8.90
2012,10,25,16,23,8.90
2012,10,25,16,24,8.80
2012,10,25,16,25,8.80
2012,10,25,16,26,8.80
2012,10,25,16,27,8.80
2012,10,25,16,28,8.70
2012,10,25,16,29,8.70
2012,10,25,16,30,8.70
2012,10,25,16,31,8.70
2012,10,25,16,32,8.60
2012,10,25,16,33,8.60
2012,10,25,16,34,8.60
2012,10,25,16,35,8.60
2012,10,25,16,36,8.50
2012,10,25,16,37,8.50
2012,10,25,16,38,8.50
2012,10,25,16,39,8.50
2012,10,25,16,40,8.40
2012,10,25,16,41,8.40
2012,10,25,16,42,8.40
2012,10,25,16,43,8.40
2012,10,25,16,44,8.40
2012,10,25,16,45,8.40
2012,10,25,16,46,8.40
2012,10,25,16,47,8.30
2012,10,25,16,48,8.30
2012,10,25,16,49,8.30
2012,10,25,16,50,8.30
2012,10,25,16,51,8.30
2012,10,25,16,52,8.30
2012,10,25,16,53,8.30
2012,10,25,16,54,8.30
2012,10,25,16,55,8.30
2012,10,25,16,56,8.30
2012,10,25,16,57,8.30
2012,10,25,16,58,8.30
2012,10,25,16,59,8.30
2012,10,25,17,00,8.30
2012,10,25,17,01,8.30
2012,10,25,17,02,8.30
2012,10,25,17,03,8.20
2012,10,25,17,04,8.20
2012,10,25,17,05,8.20
2012,10,25,17,06,8.20
2012,10,25,17,07,8.20
2012,10,25,17,08,8.20
2012,10,25,17,09,8.20
2012,10,25,17,10,8.20
2012,10,25,17,11,8.20
2012,10,25,17,12,8.20
2012,10,25,17,13,8.10
2012,10,25,17,14,8.10
2012,10,25,17,15,8.10
2012,10,25,17,16,8.10
2012,10,25,17,17,8.10
2012,10,25,17,18,8.10
2012,10,25,17,19,8.10
2012,10,25,17,20,8.10
2012,10,25,17,21,8.10
2012,10,25,17,22,8.10
2012,10,25,17,23,8.00
2012,10,25,17,24,8.00
2012,10,25,17,25,7.90
2012,10,25,17,26,7.90
2012,10,25,17,27,7.90
2012,10,25,17,28,7.90
2012,10,25,17,29,7.90
2012,10,25,17,30,7.90
2012,10,25,17,31,7.80
2012,10,25,17,32,7.80
2012,10,25,17,33,7.80
2012,10,25,17,34,7.80
2012,10,25,17,35,7.80
2012,10,25,17,36,7.80
2012,10,25,17,37,7.80
2012,10,25,17,38,7.70
2012,10,25,17,39,7.70
2012,10,25,17,40,7.70
2012,10,25,17,41,7.70
2012,10,25,17,42,7.60
2012,10,25,17,43,7.60
2012,10,25,17,44,7.60
2012,10,25,17,45,7.60
2012,10,25,17,46,7.60
2012,10,25,17,47,7.60
2012,10,25,17,48,7.60
2012,10,25,17,49,7.60
2012,10,25,17,50,7.50
2012,10,25,17,51,7.50
2012,10,25,17,52,7.50
2012,10,25,17,53,7.50
2012,10,25,17,54,7.50
2012,10,25,17,55,7.40
2012,10,25,17,56,7.40
2012,10,25,17,57,7.40
2012,10,25,17,58,7.40
2012,10,25,17,59,7.40
2012,10,25,18,00,7.30
2012,10,25,18,01,7.30
2012,10,25,18,02,7.30
2012,10,25,18,03,7.30
2012,10,25,18,04,7.30
2012,10,25,18,05,7.30
2012,10,25,18,06,7.30